Le nostre stazioni meteo in Italia

Pubblicità
Il mio iltempo24.it
Catania/Fontanarossa, Italia (16460): Temperatura & dewpoint: 13.06.2019 01:00:00 - 19.06.2019 01:00:00 (CEST)Catania/Fontanarossa, Italia (16460): velocità del vento: 13.06.2019 01:00:00 - 19.06.2019 01:00:00 (CEST)Catania/Fontanarossa, Italia (16460): direzione del vento: 13.06.2019 01:00:00 - 19.06.2019 01:00:00 (CEST)Catania/Fontanarossa, Italia (16460): reduced air pressure: 13.06.2019 01:00:00 - 19.06.2019 01:00:00 (CEST)Catania/Fontanarossa, Italia (16460): visibility: 13.06.2019 01:00:00 - 19.06.2019 01:00:00 (CEST)Catania/Fontanarossa, Italia (16460): precipitazioni: 13.06.2019 01:00:00 - 19.06.2019 01:00:00 (CEST)
Data & Tempo tt [°C] td [°C] ff [km/h] ff [kn] dd ppp [hPa] vv [km] rr [mm]
19.06.2019 01:00:00 22,0 21,0 2 1 - - 10 -
19.06.2019 00:00:00 24,0 21,0 9 5 NE - 10 -
18.06.2019 23:00:00 23,4 22,0 13 7 ENE 1015,1 10 0,0
18.06.2019 22:00:00 24,0 22,0 15 8 ENE - 10 -
18.06.2019 21:00:00 24,0 21,0 16 9 ENE - 10 -
18.06.2019 20:00:00 24,7 21,5 18 10 ENE 1013,5 10 -
18.06.2019 19:00:00 26,0 22,0 22 12 ENE - 10 -
18.06.2019 18:00:00 25,0 22,0 24 13 ENE - 10 -
18.06.2019 17:00:00 27,1 20,8 28 15 ENE 1013,0 10 0,0
18.06.2019 16:00:00 28,0 20,0 29 16 E - 10 -
18.06.2019 15:00:00 27,0 20,0 28 15 ENE - 10 -
18.06.2019 14:00:00 28,3 19,9 29 16 E 1013,5 10 -
18.06.2019 13:00:00 28,0 20,0 24 13 E - 10 -
18.06.2019 12:00:00 28,0 19,0 18 10 E - 10 -
18.06.2019 11:00:00 26,6 18,5 18 10 E 1013,9 10 0,0
18.06.2019 10:00:00 27,0 16,0 13 7 E - 10 -
18.06.2019 09:00:00 26,0 17,0 5 3 NNE - 10 -
18.06.2019 08:00:00 25,6 15,4 4 2 - 1013,5 10 -
18.06.2019 07:00:00 21,0 16,0 5 3 O - 10 -
18.06.2019 06:00:00 18,0 17,0 13 7 O - 10 -
18.06.2019 05:00:00 19,7 18,4 11 6 SO 1012,2 10 0,0
18.06.2019 04:00:00 21,0 20,0 13 7 OSO - 10 -
18.06.2019 03:00:00 21,0 19,0 11 6 O - 10 -
18.06.2019 02:00:00 21,0 18,0 9 5 O - 10 -
18.06.2019 01:00:00 22,0 21,0 9 5 E - 10 -
18.06.2019 00:00:00 24,0 19,0 15 8 ENE - 10 -
17.06.2019 23:00:00 24,1 18,7 15 8 ENE 1013,2 10 0,0
17.06.2019 22:00:00 25,0 18,0 15 8 ENE - 10 -
17.06.2019 21:00:00 26,0 17,0 13 7 ENE - 10 -
17.06.2019 20:00:00 25,9 18,9 21 11 ENE 1012,3 10 -
17.06.2019 19:00:00 27,0 18,0 22 12 ENE - 10 -
17.06.2019 18:00:00 27,0 19,0 22 12 ENE - 10 -
17.06.2019 17:00:00 27,6 18,3 26 14 ENE 1012,2 10 0,0
17.06.2019 16:00:00 29,0 17,0 26 14 ENE - 10 -
17.06.2019 15:00:00 30,0 16,0 24 13 ENE - 10 -
17.06.2019 14:00:00 30,2 16,1 31 17 ENE 1012,9 10 -
17.06.2019 13:00:00 29,0 18,0 29 16 ENE - 10 -
17.06.2019 12:00:00 29,0 15,0 18 10 ENE - 10 -
17.06.2019 11:00:00 26,8 17,2 16 9 E 1013,3 10 0,0
17.06.2019 10:00:00 29,0 15,0 8 4 - - 10 -
17.06.2019 09:00:00 27,0 15,0 8 4 SE - 10 -
17.06.2019 08:00:00 24,0 18,2 5 3 OSO 1013,2 10 -
17.06.2019 07:00:00 19,0 18,0 9 5 ONO - 10 -
17.06.2019 06:00:00 19,0 18,0 5 3 S - 9 -
17.06.2019 05:00:00 19,1 17,8 5 3 ONO 1012,4 9 0,0
17.06.2019 04:00:00 21,0 19,0 4 2 - - 10 -
17.06.2019 03:00:00 21,0 19,0 8 4 O - 10 -
17.06.2019 02:00:00 20,4 19,5 4 2 OSO 1013,0 10 -
17.06.2019 01:00:00 21,0 19,0 9 5 O - 10 -
17.06.2019 00:00:00 21,0 19,0 2 1 - - 10 -
16.06.2019 23:00:00 22,6 19,9 4 2 - 1013,5 10 0,0
16.06.2019 22:00:00 22,0 19,0 8 4 E - 10 -
16.06.2019 21:00:00 24,0 18,0 5 3 SE - 10 -
16.06.2019 20:00:00 25,4 18,1 8 4 SE 1012,9 10 -
16.06.2019 19:00:00 27,0 18,0 11 6 E - 10 -
16.06.2019 18:00:00 27,0 19,0 11 6 ESE - 10 -
16.06.2019 17:00:00 27,2 18,5 26 14 E 1012,6 10 0,0
16.06.2019 16:00:00 30,0 18,0 24 13 ENE - 10 -
16.06.2019 15:00:00 31,0 16,0 31 17 ENE - 10 -
16.06.2019 14:00:00 30,9 15,1 34 18 ENE 1013,4 10 -
16.06.2019 13:00:00 31,0 15,0 26 14 ENE - 10 -
16.06.2019 12:00:00 29,0 19,0 21 11 ENE - 10 -
16.06.2019 11:00:00 26,9 19,1 26 14 ENE 1013,7 10 0,0
16.06.2019 10:00:00 27,0 19,0 15 8 E - 10 -
16.06.2019 09:00:00 26,0 19,0 8 4 E - 10 -
16.06.2019 08:00:00 25,3 19,1 4 2 - 1013,1 10 -
16.06.2019 07:00:00 22,0 19,0 4 2 E - 10 -
16.06.2019 06:00:00 20,0 18,0 8 4 O - 10 -
16.06.2019 05:00:00 21,0 18,6 2 1 - 1012,5 10 0,0
16.06.2019 04:00:00 22,0 19,0 4 2 OSO - 10 -
16.06.2019 03:00:00 23,0 19,0 2 1 - - 10 -
16.06.2019 02:00:00 22,8 20,1 4 2 - 1013,3 10 -
16.06.2019 01:00:00 22,0 20,0 9 5 O - 10 -
16.06.2019 00:00:00 22,0 20,0 8 4 O - 10 -
15.06.2019 23:00:00 23,0 20,3 4 2 - 1013,3 10 0,0
15.06.2019 22:00:00 24,0 21,0 13 7 E - 10 -
15.06.2019 21:00:00 25,0 20,0 11 6 E - 10 -
15.06.2019 20:00:00 28,6 16,7 13 7 ENE 1012,3 10 -
15.06.2019 19:00:00 31,0 11,0 9 5 E - 10 -
15.06.2019 18:00:00 32,0 11,0 11 6 E - 10 -
15.06.2019 17:00:00 32,4 11,4 13 7 ESE 1013,1 10 0,0
15.06.2019 16:00:00 32,0 12,0 16 9 ESE - 10 -
15.06.2019 15:00:00 33,0 12,0 15 8 ESE - 10 -
15.06.2019 14:00:00 33,8 10,4 13 7 SE 1013,8 10 -
15.06.2019 13:00:00 34,0 10,0 15 8 ESE - 10 -
15.06.2019 12:00:00 32,0 13,0 9 5 E - 10 -
15.06.2019 11:00:00 29,7 15,5 13 7 E 1014,7 10 0,0
15.06.2019 10:00:00 30,0 16,0 9 5 NE - 10 -
15.06.2019 09:00:00 29,0 15,0 9 5 SO - 10 -
15.06.2019 08:00:00 24,8 16,9 8 4 O 1014,6 10 -
15.06.2019 07:00:00 23,0 17,0 9 5 SO - 10 -
15.06.2019 06:00:00 23,0 18,0 9 5 O - 10 -
15.06.2019 05:00:00 22,8 19,7 8 4 SE 1014,0 10 0,0
15.06.2019 04:00:00 24,0 16,0 4 2 - - 10 -
15.06.2019 03:00:00 23,0 17,0 13 7 O - 10 -
15.06.2019 02:00:00 23,2 17,4 13 7 OSO 1015,4 10 -
15.06.2019 01:00:00 24,0 18,0 15 8 OSO - 10 -
15.06.2019 00:00:00 24,0 19,0 15 8 OSO - 10 -
14.06.2019 23:00:00 24,3 18,3 13 7 O 1017,1 10 0,0
14.06.2019 22:00:00 24,0 19,0 11 6 O - 10 -
14.06.2019 21:00:00 25,0 19,0 4 2 O - 10 -
14.06.2019 20:00:00 26,0 19,0 5 3 E 1016,3 10 -
14.06.2019 19:00:00 27,0 19,0 13 7 E - 10 -
14.06.2019 18:00:00 28,0 19,0 8 4 E - 10 -
14.06.2019 17:00:00 27,8 19,3 13 7 E 1016,7 10 0,0
14.06.2019 16:00:00 28,0 19,0 16 9 E - 10 -
14.06.2019 15:00:00 29,0 19,0 15 8 E - 10 -
14.06.2019 14:00:00 29,0 17,4 13 7 ESE 1017,0 10 -
14.06.2019 13:00:00 30,0 17,0 16 9 E - 10 -
14.06.2019 12:00:00 30,0 16,0 21 11 ESE - 10 -
14.06.2019 11:00:00 30,5 13,7 11 6 E 1017,1 10 0,0
14.06.2019 10:00:00 28,0 15,0 13 7 E - 10 -
14.06.2019 09:00:00 30,0 8,0 16 9 O - 10 -
14.06.2019 08:00:00 25,9 11,0 13 7 OSO 1016,2 10 -
14.06.2019 07:00:00 20,0 14,0 13 7 OSO - 10 -
14.06.2019 06:00:00 18,0 15,0 11 6 OSO - 10 -
14.06.2019 05:00:00 17,5 15,5 11 6 SO 1015,6 10 0,0
14.06.2019 04:00:00 19,0 18,0 8 4 OSO - 10 -
14.06.2019 03:00:00 19,0 18,0 9 5 SO - 10 -
14.06.2019 02:00:00 19,9 18,3 9 5 OSO 1015,8 10 -
14.06.2019 01:00:00 21,0 19,0 11 6 O - 10 -
14.06.2019 00:00:00 21,0 19,0 9 5 O - 10 -
13.06.2019 23:00:00 21,6 20,0 2 1 - 1015,5 10 0,0
13.06.2019 22:00:00 23,0 20,0 4 2 SE - 10 -
13.06.2019 21:00:00 24,0 19,0 11 6 E - 10 -
13.06.2019 20:00:00 26,4 18,2 18 10 ENE 1014,0 10 -
13.06.2019 19:00:00 29,0 16,0 21 11 ENE - 10 -
13.06.2019 18:00:00 29,0 18,0 28 15 ENE - 10 -
13.06.2019 17:00:00 26,6 19,3 28 15 E 1013,4 10 0,0
13.06.2019 16:00:00 28,0 18,0 35 19 ENE - 10 -
13.06.2019 15:00:00 27,0 19,0 22 12 E - 10 -
13.06.2019 14:00:00 27,9 17,8 18 10 ENE 1014,0 10 -
13.06.2019 13:00:00 27,0 17,0 15 8 E - 10 -
13.06.2019 12:00:00 27,0 19,0 13 7 E - 10 -
13.06.2019 11:00:00 26,8 19,3 15 8 E 1014,6 10 0,0
13.06.2019 10:00:00 28,0 18,0 4 2 - - 10 -
13.06.2019 09:00:00 25,0 20,0 4 2 - - 10 -
13.06.2019 08:00:00 22,4 20,1 5 3 OSO 1014,4 10 -
13.06.2019 07:00:00 19,0 19,0 8 4 O - 10 -
13.06.2019 06:00:00 18,0 18,0 5 3 O - 10 -
13.06.2019 05:00:00 18,7 18,5 4 2 - 1013,2 10 0,0
13.06.2019 04:00:00 19,0 18,0 8 4 O - 10 -
13.06.2019 03:00:00 20,0 19,0 9 5 OSO - 10 -
13.06.2019 02:00:00 20,1 19,3 11 6 O 1013,3 10 -
13.06.2019 01:00:00 21,0 19,0 11 6 O - 10 -

tt = Temperatura
td = dewpoint
ff = velocità del vento
dd = direzione del vento
ppp = reduced air pressure
vv = visibility
rr = precipitazioni

Stazioni seguenti

WeatherPro
AMSI
MeteoEarth